Weather History for KNBT - October, 2012

Change the Weather History Date:

Monday, October 22, 2012

  Actual Average (KMRH) Record (KMRH)
Temperature  
Mean Temperature 64 °F -  
Max Temperature 71 °F 74 °F 84 °F (1990)
Min Temperature 57 °F 49 °F 31 °F (1974)
Degree Days  
Heating Degree Days 1    
Growing Degree Days 14 (Base 50)    
Moisture  
Dew Point 48 °F    
Average Humidity 57    
Maximum Humidity 81    
Minimum Humidity 39    
Precipitation  
Precipitation 0.00 in - - ()
Sea Level Pressure  
Sea Level Pressure 30.19 in    
Wind  
Wind Speed 6 mph (NNW)    
Max Wind Speed 12 mph    
Max Gust Speed -    
Visibility 9 miles    
Events      
Averages and records for this station are not official NWS values.
T = Trace of Precipitation, MM = Missing Value Source: NWS Daily Summary

Daily Weather History Graph

Daily Weather History Graph

Search for Another Location

Airport or City:

Trip Planner

Search our weather history database for the weather conditions in past years. The results will help you decide how hot, cold, wet, or windy it might be!

Date:

Astronomy

Oct. 22, 2012 Rise Set
Actual Time 7:18 AM EDT 6:21 PM EDT
Civil Twilight 6:52 AM EDT 6:47 PM EDT
Nautical Twilight 6:22 AM EDT 7:17 PM EDT
Astronomical Twilight 5:53 AM EDT 7:46 PM EDT
Moon 2:13 PM EDT (10/22) 12:18 AM EDT (10/22)
Length of Visible Light 11h 55m
Length of Day
11h 03m
First Quarter, 56% of the Moon is Illuminated
Oct 22
First Quarter
Oct 29
Full
Nov 6
Last Quarter
Nov 13
New
Nov 20
First Quarter

Hourly Weather History & Observations

Time (EDT) Temp. Dew Point Humidity Pressure Visibility Wind Dir Wind Speed Gust Speed Precip Events Conditions
12:56 AM 60.1 °F 48.0 °F 64% 30.15 in 10.0 mi NNE 5.8 mph - N/A   Clear
1:56 AM 62.1 °F 46.9 °F 58% 30.16 in 10.0 mi North 5.8 mph - N/A   Clear
2:56 AM 61.0 °F 46.9 °F 60% 30.16 in 10.0 mi North 4.6 mph - N/A   Clear
3:56 AM 60.1 °F 46.0 °F 60% 30.16 in 10.0 mi North 3.5 mph - N/A   Clear
4:56 AM 60.1 °F 48.0 °F 64% 30.16 in 10.0 mi Calm Calm - N/A   Clear
5:56 AM 59.0 °F 51.1 °F 75% 30.18 in 10.0 mi North 6.9 mph - N/A   Clear
6:56 AM 57.9 °F 51.1 °F 78% 30.19 in 10.0 mi NNW 4.6 mph - N/A   Clear
7:56 AM 57.9 °F 52.0 °F 81% 30.21 in 10.0 mi NW 6.9 mph - N/A   Clear
8:56 AM 62.1 °F 52.0 °F 70% 30.23 in 10.0 mi NW 8.1 mph - N/A   Clear
9:52 AM 64.4 °F 48.2 °F 56% 30.22 in 1.8 mi NNW 9.2 mph - N/A   Haze
9:56 AM 64.0 °F 48.0 °F 56% 30.24 in 1.5 mi NNW 9.2 mph - N/A   Haze
10:07 AM 64.4 °F 48.2 °F 56% 30.22 in 10.0 mi NNW 10.4 mph - N/A   Clear
10:33 AM 64.4 °F 48.2 °F 56% 30.22 in 1.8 mi NNW 11.5 mph - N/A   Haze
10:48 AM 64.4 °F 48.2 °F 56% 30.22 in 10.0 mi North 9.2 mph - N/A   Clear
10:56 AM 66.0 °F 48.9 °F 54% 30.23 in 10.0 mi North 6.9 mph - N/A   Clear
11:56 AM 66.9 °F 46.9 °F 49% 30.23 in 10.0 mi North 6.9 mph - N/A   Clear
12:56 PM 68.0 °F 46.9 °F 47% 30.21 in 10.0 mi NW 8.1 mph - N/A   Clear
1:56 PM 69.1 °F 46.0 °F 44% 30.19 in 10.0 mi NW 6.9 mph - N/A   Clear
2:56 PM 70.0 °F 44.1 °F 39% 30.17 in 10.0 mi NE 4.6 mph - N/A   Clear
3:56 PM 71.1 °F 46.0 °F 41% 30.17 in 10.0 mi North 5.8 mph - N/A   Clear
4:56 PM 71.1 °F 46.0 °F 41% 30.16 in 10.0 mi NNW 5.8 mph - N/A   Clear
5:56 PM 69.1 °F 48.9 °F 49% 30.17 in 10.0 mi NNW 4.6 mph - N/A   Clear
6:56 PM 66.9 °F 48.9 °F 52% 30.17 in 10.0 mi NW 6.9 mph - N/A   Clear
7:56 PM 66.9 °F 48.9 °F 52% 30.18 in 10.0 mi NNW 3.5 mph - N/A   Clear
8:56 PM 64.0 °F 50.0 °F 60% 30.18 in 10.0 mi Calm Calm - N/A   Clear
9:56 PM 62.1 °F 46.9 °F 58% 30.19 in 10.0 mi SW 3.5 mph - N/A   Clear
10:56 PM 59.0 °F 48.0 °F 67% 30.19 in 10.0 mi SSW 5.8 mph - N/A   Clear
11:56 PM 60.1 °F 48.0 °F 64% 30.20 in 10.0 mi SSW 4.6 mph - N/A   Clear